Regional Weather Roundup
Issued by NWS Goodland, KS

Home | Current Version | Previous Version | Graphics & Text | Print | Product List | Glossary On
Versions: 1 2 3 4 5 6 7 8 9 10 11 12 13 14 15 16 17 18 19 20 21 22 23 24 25 26 27 28 29 30 31 32 33 34 35 36 37 38 39 40 41 42 43 44 45 46 47 48 49 50
000
ASUS43 KGLD 010959
RWRGLD

GOODLAND FORECAST AREA HOURLY WEATHER ROUNDUP
NATIONAL WEATHER SERVICE GOODLAND KS
300 AM MST SUN FEB 01 2015

...OFFICIAL OBSERVATIONS...

CITY           SKY/WX    TMP DP  RH WIND       PRES   REMARKS
GOODLAND KS    CLOUDY    20  17  88 N25G35    29.98R WCI   2
HILL CITY KS   MIX PCPN  23  18  81 N26G36    29.95R WCI   6
IMPERIAL NEB   LGT SNOW  18  12  77 N25G32    30.05R WCI   0
MCCOOK NEB     LGT SNOW  19  14  81 NW25G35   30.02R WCI   1
AKRON CO       LGT SNOW  22  21  96 N18       30.02R FOG     WCI   7
BURLINGTON CO  CLOUDY    23  19  85 N24G36    29.98R WCI   7
LIMON CO       LGT SNOW  23  22  96 N20       30.01R VSB 1   WCI   8
$$

...UNOFFICIAL OBSERVATIONS...

CITY           SKY/WX    TMP DP  RH WIND       PRES   REMARKS
COLBY KS       CLOUDY    19  18  93 NW21G28   29.98R WCI   3
GOVE KS          N/A     23  32 100 MISG        N/A
NORTON KS      LGT SNOW  19  14  79 NW28G33   29.95R WCI   1
SHARON SPRINGS   N/A     24  21  88 N26G35      N/A  WCI   8
KIT CARSON CO    N/A     26  22  85 MISG        N/A
YUMA CO          N/A     22  19  87 N16         N/A  WCI   8
$$


USA.gov is the U.S. government's official web portal to all federal, state and local government web resources and services.